| time (UTC) | temp C | wind direction | speed KPH | gust KPH | rain 1hr cm | rain 24hr cm | rain mn cm | humidity % | barometer mb |
| 20260831042236 | 16 | 309 | 0.0 | 0.0 | 0.00 | 0.00 | 0.00 | 71 | 1018.8 |
| 20260831041722 | 16 | 309 | 0.0 | 0.0 | 0.00 | 0.00 | 0.00 | 69 | 1018.6 |
| 20260831041310 | 16 | 309 | 0.0 | 0.0 | 0.00 | 0.00 | 0.00 | 68 | 1018.8 |
| 20260831040725 | 17 | 309 | 0.0 | 0.0 | 0.00 | 0.00 | 0.00 | 68 | 1018.8 |
| 20260831040232 | 17 | 309 | 0.0 | 0.0 | 0.00 | 0.00 | 0.00 | 67 | 1018.8 |
| 20260831035739 | 17 | 309 | 0.0 | 0.0 | 0.00 | 0.00 | 0.00 | 66 | 1018.8 |
| 20260831035227 | 17 | 304 | 0.0 | 0.0 | 0.00 | 0.00 | 0.00 | 65 | 1018.9 |
| 20260831034753 | 17 | 304 | 0.0 | 0.0 | 0.00 | 0.00 | 0.00 | 64 | 1018.9 |
| 20260831034721 | 17 | 304 | 0.0 | 0.0 | 0.00 | 0.00 | 0.00 | 64 | 1018.9 |
| 20260831034230 | 17 | 304 | 0.0 | 3.2 | 0.00 | 0.00 | 0.00 | 63 | 1018.8 |
| 20260831033756 | 17 | 302 | 0.0 | 3.2 | 0.00 | 0.00 | 0.00 | 63 | 1018.8 |
| 20260831033231 | 17 | 302 | 0.0 | 3.2 | 0.00 | 0.00 | 0.00 | 63 | 1018.8 |
| 20260831032737 | 17 | 292 | 0.0 | 3.2 | 0.00 | 0.00 | 0.00 | 62 | 1018.6 |
| 20260831032300 | 17 | 292 | 0.0 | 3.2 | 0.00 | 0.00 | 0.00 | 62 | 1018.6 |
| 20260831031754 | 18 | 311 | 0.0 | 0.0 | 0.00 | 0.00 | 0.00 | 62 | 1018.6 |
| 20260831031722 | 18 | 311 | 0.0 | 0.0 | 0.00 | 0.00 | 0.00 | 62 | 1018.6 |
| 20260831031309 | 18 | 311 | 0.0 | 1.6 | 0.00 | 0.00 | 0.00 | 62 | 1018.6 |
| 20260831030724 | 18 | 311 | 0.0 | 3.2 | 0.00 | 0.00 | 0.00 | 60 | 1018.6 |
| 20260831030235 | 18 | 304 | 1.6 | 3.2 | 0.00 | 0.00 | 0.00 | 60 | 1018.7 |
| 20260831025722 | 18 | 293 | 0.0 | 3.2 | 0.00 | 0.00 | 0.00 | 60 | 1018.6 |
| 20260831025230 | 18 | 292 | 1.6 | 3.2 | 0.00 | 0.00 | 0.00 | 59 | 1018.7 |
| 20260831024736 | 18 | 323 | 0.0 | 4.8 | 0.00 | 0.00 | 0.00 | 59 | 1018.7 |
| 20260831024223 | 19 | 333 | 0.0 | 8.0 | 0.00 | 0.00 | 0.00 | 59 | 1018.8 |
| 20260831023730 | 19 | 316 | 3.2 | 8.0 | 0.00 | 0.00 | 0.00 | 58 | 1018.9 |
| 20260831023257 | 19 | 317 | 1.6 | 6.4 | 0.00 | 0.00 | 0.00 | 58 | 1018.8 |
| 20260831022753 | 19 | 292 | 3.2 | 6.4 | 0.00 | 0.00 | 0.00 | 57 | 1018.8 |
| 20260831022309 | 20 | 313 | 1.6 | 4.8 | 0.00 | 0.00 | 0.00 | 57 | 1018.9 |
| 20260831022238 | 20 | 313 | 1.6 | 4.8 | 0.00 | 0.00 | 0.00 | 57 | 1018.9 |
| 20260831021723 | 20 | 349 | 1.6 | 6.4 | 0.00 | 0.00 | 0.00 | 56 | 1018.9 |
| 20260831021230 | 20 | 288 | 3.2 | 6.4 | 0.00 | 0.00 | 0.00 | 54 | 1018.8 |
| 20260831020737 | 20 | 294 | 3.2 | 6.4 | 0.00 | 0.00 | 0.00 | 53 | 1019.1 |
| 20260831020305 | 21 | 305 | 0.0 | 3.2 | 0.00 | 0.00 | 0.00 | 53 | 1019.0 |
| 20260831015720 | 21 | 324 | 0.0 | 6.4 | 0.00 | 0.00 | 0.00 | 52 | 1019.1 |
| 20260831015232 | 21 | 336 | 1.6 | 6.4 | 0.00 | 0.00 | 0.00 | 51 | 1019.0 |
| 20260831014738 | 21 | 304 | 0.0 | 3.2 | 0.00 | 0.00 | 0.00 | 51 | 1019.1 |
| 20260831014225 | 21 | 327 | 0.0 | 3.2 | 0.00 | 0.00 | 0.00 | 51 | 1019.2 |
| 20260831013732 | 21 | 264 | 1.6 | 3.2 | 0.00 | 0.00 | 0.00 | 50 | 1019.2 |
| 20260831013239 | 21 | 320 | 0.0 | 4.8 | 0.00 | 0.00 | 0.00 | 50 | 1019.3 |
| 20260831012806 | 21 | 265 | 3.2 | 4.8 | 0.00 | 0.00 | 0.00 | 49 | 1019.4 |
| 20260831012734 | 21 | 265 | 3.2 | 4.8 | 0.00 | 0.00 | 0.00 | 49 | 1019.4 |
| 20260831012222 | 21 | 316 | 0.0 | 3.2 | 0.00 | 0.00 | 0.00 | 50 | 1019.4 |
| 20260831011728 | 21 | 318 | 1.6 | 8.0 | 0.00 | 0.00 | 0.00 | 49 | 1019.3 |
| 20260831011235 | 21 | 306 | 3.2 | 8.0 | 0.00 | 0.00 | 0.00 | 49 | 1019.3 |
| 20260831010722 | 22 | 266 | 1.6 | 4.8 | 0.00 | 0.00 | 0.00 | 49 | 1019.4 |
| 20260831010310 | 22 | 334 | 1.6 | 4.8 | 0.00 | 0.00 | 0.00 | 49 | 1019.5 |
| 20260831005725 | 22 | 332 | 1.6 | 6.4 | 0.00 | 0.00 | 0.00 | 50 | 1019.5 |
| 20260831005254 | 21 | 276 | 3.2 | 6.4 | 0.00 | 0.00 | 0.00 | 50 | 1019.5 |
| 20260831004732 | 21 | 296 | 1.6 | 9.7 | 0.00 | 0.00 | 0.00 | 50 | 1019.5 |
| 20260831004239 | 21 | 339 | 4.8 | 9.7 | 0.00 | 0.00 | 0.00 | 51 | 1019.6 |
| 20260831003721 | 22 | 252 | 3.2 | 6.4 | 0.00 | 0.00 | 0.00 | 50 | 1019.7 |
| 20260831003228 | 22 | 340 | 1.6 | 3.2 | 0.00 | 0.00 | 0.00 | 50 | 1019.7 |
| 20260831002735 | 21 | 50 | 0.0 | 4.8 | 0.00 | 0.00 | 0.00 | 51 | 1019.7 |
| 20260831002223 | 21 | 93 | 0.0 | 6.4 | 0.00 | 0.00 | 0.00 | 51 | 1019.8 |
| 20260831001729 | 21 | 252 | 4.8 | 6.4 | 0.00 | 0.00 | 0.00 | 51 | 1019.7 |
| 20260831001236 | 22 | 37 | 1.6 | 6.4 | 0.00 | 0.00 | 0.00 | 51 | 1019.8 |
| 20260831000738 | 21 | 355 | 1.6 | 6.4 | 0.00 | 0.00 | 0.00 | 51 | 1019.7 |
| 20260831000226 | 21 | 271 | 1.6 | 4.8 | 0.00 | 0.00 | 0.00 | 51 | 1019.9 |
| 20260830235735 | 21 | 302 | 1.6 | 6.4 | 0.00 | 0.00 | 0.00 | 53 | 1020.0 |
| 20260830235305 | 21 | 304 | 3.2 | 6.4 | 0.00 | 0.00 | 0.00 | 53 | 1019.9 |
| 20260830234738 | 21 | 277 | 1.6 | 3.2 | 0.00 | 0.00 | 0.00 | 54 | 1019.9 |
| 20260830234226 | 20 | 144 | 1.6 | 3.2 | 0.00 | 0.00 | 0.00 | 55 | 1020.0 |
| 20260830233732 | 20 | 191 | 0.0 | 3.2 | 0.00 | 0.00 | 0.00 | 56 | 1020.2 |
| 20260830233220 | 20 | 153 | 0.0 | 3.2 | 0.00 | 0.00 | 0.00 | 58 | 1020.2 |
| 20260830232727 | 20 | 121 | 1.6 | 3.2 | 0.00 | 0.00 | 0.00 | 54 | 1020.2 |
| 20260830232255 | 20 | 167 | 0.0 | 1.6 | 0.00 | 0.00 | 0.00 | 55 | 1020.1 |
| 20260830232223 | 20 | 167 | 0.0 | 1.6 | 0.00 | 0.00 | 0.00 | 55 | 1020.1 |
| 20260830231729 | 20 | 186 | 0.0 | 3.2 | 0.00 | 0.00 | 0.00 | 56 | 1020.1 |
| 20260830231236 | 21 | 273 | 1.6 | 3.2 | 0.00 | 0.00 | 0.00 | 55 | 1020.1 |
| 20260830230804 | 21 | 115 | 1.6 | 6.4 | 0.00 | 0.00 | 0.00 | 54 | 1020.2 |
| 20260830230239 | 21 | 136 | 3.2 | 6.4 | 0.00 | 0.00 | 0.00 | 53 | 1020.2 |
| 20260830225806 | 21 | 40 | 1.6 | 4.8 | 0.00 | 0.00 | 0.00 | 55 | 1020.1 |
| 20260830225734 | 21 | 40 | 1.6 | 4.8 | 0.00 | 0.00 | 0.00 | 55 | 1020.1 |
| 20260830225222 | 21 | 306 | 1.6 | 4.8 | 0.00 | 0.00 | 0.00 | 56 | 1020.2 |
| 20260830224732 | 21 | 38 | 1.6 | 8.0 | 0.00 | 0.00 | 0.00 | 56 | 1020.3 |
| 20260830224239 | 20 | 346 | 4.8 | 8.0 | 0.00 | 0.00 | 0.00 | 56 | 1020.4 |
| 20260830223806 | 20 | 52 | 1.6 | 9.7 | 0.00 | 0.00 | 0.00 | 56 | 1020.4 |
| 20260830223302 | 20 | 69 | 1.6 | 9.7 | 0.00 | 0.00 | 0.00 | 57 | 1020.5 |
| 20260830223230 | 20 | 69 | 1.6 | 9.7 | 0.00 | 0.00 | 0.00 | 57 | 1020.5 |
| 20260830222737 | 20 | 350 | 4.8 | 11.3 | 0.00 | 0.00 | 0.00 | 57 | 1020.6 |
| 20260830222306 | 20 | 251 | 3.2 | 9.7 | 0.00 | 0.00 | 0.00 | 56 | 1020.6 |
| 20260830222233 | 20 | 251 | 3.2 | 9.7 | 0.00 | 0.00 | 0.00 | 56 | 1020.6 |
| 20260830221759 | 20 | 251 | 1.6 | 3.2 | 0.00 | 0.00 | 0.00 | 55 | 1020.6 |
| 20260830221727 | 20 | 251 | 1.6 | 3.2 | 0.00 | 0.00 | 0.00 | 55 | 1020.6 |
| 20260830221234 | 20 | 217 | 0.0 | 3.2 | 0.00 | 0.00 | 0.00 | 55 | 1020.7 |
| 20260830220801 | 21 | 288 | 1.6 | 3.2 | 0.00 | 0.00 | 0.00 | 54 | 1020.6 |
| 20260830220236 | 21 | 292 | 1.6 | 6.4 | 0.00 | 0.00 | 0.00 | 54 | 1021.0 |
| 20260830215803 | 21 | 130 | 3.2 | 8.0 | 0.00 | 0.00 | 0.00 | 53 | 1020.7 |
| 20260830215731 | 21 | 130 | 3.2 | 8.0 | 0.00 | 0.00 | 0.00 | 53 | 1020.7 |
| 20260830215239 | 21 | 88 | 1.6 | 9.7 | 0.00 | 0.00 | 0.00 | 52 | 1020.9 |
| 20260830214725 | 21 | 143 | 3.2 | 12.9 | 0.00 | 0.00 | 0.00 | 51 | 1020.9 |
| 20260830214232 | 22 | 336 | 3.2 | 12.9 | 0.00 | 0.00 | 0.00 | 50 | 1020.9 |
| 20260830213739 | 22 | 136 | 1.6 | 6.4 | 0.00 | 0.00 | 0.00 | 54 | 1020.9 |
| 20260830213306 | 21 | 9 | 3.2 | 8.0 | 0.00 | 0.00 | 0.00 | 54 | 1021.0 |
| 20260830212721 | 21 | 276 | 3.2 | 8.0 | 0.00 | 0.00 | 0.00 | 54 | 1021.0 |
| 20260830212229 | 21 | 313 | 3.2 | 9.7 | 0.00 | 0.00 | 0.00 | 53 | 1020.9 |
| 20260830211739 | 20 | 263 | 4.8 | 9.7 | 0.00 | 0.00 | 0.00 | 53 | 1021.0 |
| 20260830211226 | 20 | 169 | 3.2 | 6.4 | 0.00 | 0.00 | 0.00 | 53 | 1021.2 |
| 20260830210733 | 21 | 265 | 1.6 | 6.4 | 0.00 | 0.00 | 0.00 | 55 | 1021.2 |
| 20260830210220 | 20 | 177 | 3.2 | 6.4 | 0.00 | 0.00 | 0.00 | 55 | 1021.5 |
| 20260830205727 | 20 | 351 | 1.6 | 6.4 | 0.00 | 0.00 | 0.00 | 57 | 1021.5 |
| 20260830205235 | 20 | 137 | 3.2 | 6.4 | 0.00 | 0.00 | 0.00 | 55 | 1021.5 |
| 20260830204721 | 20 | 121 | 1.6 | 6.4 | 0.00 | 0.00 | 0.00 | 57 | 1021.3 |
| 20260830204309 | 20 | 279 | 3.2 | 6.4 | 0.00 | 0.00 | 0.00 | 59 | 1021.4 |
| 20260830203805 | 19 | 88 | 3.2 | 9.7 | 0.00 | 0.00 | 0.00 | 59 | 1021.4 |
| 20260830203301 | 20 | 132 | 6.4 | 9.7 | 0.00 | 0.00 | 0.00 | 58 | 1021.4 |
| 20260830202736 | 19 | 313 | 3.2 | 12.9 | 0.00 | 0.00 | 0.00 | 59 | 1021.5 |
| 20260830202224 | 19 | 109 | 4.8 | 12.9 | 0.00 | 0.00 | 0.00 | 59 | 1021.6 |
| 20260830201730 | 20 | 274 | 6.4 | 11.3 | 0.00 | 0.00 | 0.00 | 58 | 1021.5 |
| 20260830201221 | 20 | 194 | 1.6 | 6.4 | 0.00 | 0.00 | 0.00 | 60 | 1021.5 |
| 20260830200728 | 19 | 17 | 3.2 | 12.9 | 0.00 | 0.00 | 0.00 | 61 | 1021.5 |
| 20260830200235 | 19 | 298 | 3.2 | 12.9 | 0.00 | 0.00 | 0.00 | 61 | 1021.5 |
| 20260830195722 | 19 | 49 | 3.2 | 9.7 | 0.00 | 0.00 | 0.00 | 62 | 1021.6 |
| 20260830195311 | 18 | 300 | 4.8 | 11.3 | 0.00 | 0.00 | 0.00 | 61 | 1021.6 |
| 20260830194725 | 18 | 236 | 4.8 | 11.3 | 0.00 | 0.00 | 0.00 | 62 | 1021.5 |
| 20260830194232 | 18 | 251 | 3.2 | 9.7 | 0.00 | 0.00 | 0.00 | 63 | 1021.7 |
| 20260830193739 | 18 | 261 | 4.8 | 11.3 | 0.00 | 0.00 | 0.00 | 63 | 1021.7 |
| 20260830193226 | 18 | 279 | 3.2 | 6.4 | 0.00 | 0.00 | 0.00 | 61 | 1021.7 |
| 20260830192733 | 18 | 234 | 1.6 | 4.8 | 0.00 | 0.00 | 0.00 | 61 | 1021.6 |
| 20260830192225 | 18 | 360 | 1.6 | 4.8 | 0.00 | 0.00 | 0.00 | 62 | 1021.6 |
| 20260830191731 | 18 | 105 | 0.0 | 6.4 | 0.00 | 0.00 | 0.00 | 62 | 1021.6 |
| 20260830191238 | 18 | 303 | 1.6 | 6.4 | 0.00 | 0.00 | 0.00 | 64 | 1021.6 |
| 20260830190725 | 18 | 327 | 1.6 | 6.4 | 0.00 | 0.00 | 0.00 | 63 | 1021.6 |
| 20260830190232 | 18 | 350 | 3.2 | 6.4 | 0.00 | 0.00 | 0.00 | 64 | 1021.4 |
| 20260830185739 | 17 | 107 | 1.6 | 4.8 | 0.00 | 0.00 | 0.00 | 66 | 1021.6 |
| 20260830185227 | 17 | 92 | 3.2 | 4.8 | 0.00 | 0.00 | 0.00 | 65 | 1021.7 |
| 20260830184733 | 17 | 108 | 1.6 | 9.7 | 0.00 | 0.00 | 0.00 | 66 | 1021.8 |
| 20260830184220 | 17 | 101 | 4.8 | 9.7 | 0.00 | 0.00 | 0.00 | 65 | 1021.7 |
| 20260830183807 | 17 | 169 | 1.6 | 9.7 | 0.00 | 0.00 | 0.00 | 64 | 1021.7 |
| 20260830183303 | 17 | 67 | 4.8 | 9.7 | 0.00 | 0.00 | 0.00 | 65 | 1021.6 |
| 20260830182738 | 17 | 102 | 1.6 | 9.7 | 0.00 | 0.00 | 0.00 | 65 | 1021.6 |
| 20260830182230 | 17 | 52 | 3.2 | 14.5 | 0.00 | 0.00 | 0.00 | 64 | 1021.7 |
| 20260830181756 | 17 | 95 | 6.4 | 14.5 | 0.00 | 0.00 | 0.00 | 63 | 1021.8 |
| 20260830181307 | 18 | 48 | 3.2 | 12.9 | 0.00 | 0.00 | 0.00 | 64 | 1021.8 |
| 20260830181235 | 18 | 48 | 3.2 | 12.9 | 0.00 | 0.00 | 0.00 | 64 | 1021.8 |
| 20260830180801 | 18 | 103 | 3.2 | 6.4 | 0.00 | 0.00 | 0.00 | 66 | 1021.8 |
| 20260830180729 | 18 | 103 | 3.2 | 6.4 | 0.00 | 0.00 | 0.00 | 66 | 1021.8 |
| 20260830180240 | 17 | 74 | 1.6 | 4.8 | 0.00 | 0.00 | 0.00 | 67 | 1021.7 |
| 20260830175726 | 16 | 42 | 0.0 | 3.2 | 0.00 | 0.00 | 0.00 | 69 | 1021.8 |
| 20260830175234 | 16 | 11 | 0.0 | 9.7 | 0.00 | 0.00 | 0.00 | 69 | 1021.8 |
| 20260830174800 | 16 | 277 | 1.6 | 9.7 | 0.00 | 0.00 | 0.00 | 68 | 1021.9 |
| 20260830174236 | 16 | 84 | 3.2 | 11.3 | 0.00 | 0.00 | 0.00 | 68 | 1021.8 |
| 20260830173723 | 16 | 164 | 1.6 | 8.0 | 0.00 | 0.00 | 0.00 | 69 | 1021.8 |
| 20260830173230 | 16 | 99 | 3.2 | 6.4 | 0.00 | 0.00 | 0.00 | 69 | 1021.7 |
| 20260830172757 | 16 | 94 | 3.2 | 12.9 | 0.00 | 0.00 | 0.00 | 71 | 1021.7 |
| 20260830172233 | 16 | 129 | 4.8 | 12.9 | 0.00 | 0.00 | 0.00 | 70 | 1021.7 |
| 20260830171800 | 16 | 117 | 1.6 | 3.2 | 0.00 | 0.00 | 0.00 | 71 | 1021.7 |
| 20260830171235 | 16 | 326 | 1.6 | 6.4 | 0.00 | 0.00 | 0.00 | 71 | 1021.7 |
| 20260830170722 | 16 | 171 | 3.2 | 8.0 | 0.00 | 0.00 | 0.00 | 70 | 1021.5 |
| 20260830170229 | 16 | 147 | 3.2 | 8.0 | 0.00 | 0.00 | 0.00 | 70 | 1021.5 |
| 20260830165720 | 16 | 88 | 1.6 | 6.4 | 0.00 | 0.00 | 0.00 | 71 | 1021.7 |
| 20260830165308 | 16 | 119 | 1.6 | 8.0 | 0.00 | 0.00 | 0.00 | 70 | 1021.6 |
| 20260830165236 | 16 | 119 | 1.6 | 8.0 | 0.00 | 0.00 | 0.00 | 70 | 1021.6 |
| 20260830164722 | 16 | 79 | 3.2 | 8.0 | 0.00 | 0.00 | 0.00 | 70 | 1021.6 |
| 20260830164229 | 15 | 194 | 3.2 | 9.7 | 0.00 | 0.00 | 0.00 | 71 | 1021.6 |
| 20260830163736 | 15 | 88 | 4.8 | 9.7 | 0.00 | 0.00 | 0.00 | 72 | 1021.6 |
| 20260830163223 | 15 | 198 | 1.6 | 6.4 | 0.00 | 0.00 | 0.00 | 72 | 1021.6 |
| 20260830162730 | 15 | 158 | 3.2 | 4.8 | 0.00 | 0.00 | 0.00 | 72 | 1021.7 |
| 20260830162238 | 15 | 34 | 1.6 | 4.8 | 0.00 | 0.00 | 0.00 | 74 | 1021.8 |
| 20260830161724 | 15 | 68 | 1.6 | 3.2 | 0.00 | 0.08 | 0.00 | 74 | 1021.7 |
| 20260830161231 | 15 | 28 | 1.6 | 3.2 | 0.00 | 0.08 | 0.00 | 74 | 1021.7 |
| 20260830160722 | 15 | 32 | 1.6 | 3.2 | 0.00 | 0.08 | 0.00 | 75 | 1021.8 |
| 20260830160229 | 15 | 163 | 1.6 | 6.4 | 0.00 | 0.08 | 0.00 | 75 | 1021.7 |
| 20260830155736 | 15 | 224 | 1.6 | 6.4 | 0.00 | 0.08 | 0.00 | 75 | 1021.8 |
| 20260830155224 | 15 | 84 | 1.6 | 6.4 | 0.00 | 0.08 | 0.00 | 75 | 1021.8 |
| 20260830154811 | 15 | 85 | 1.6 | 6.4 | 0.00 | 0.08 | 0.00 | 76 | 1021.7 |
| 20260830154225 | 14 | 99 | 1.6 | 3.2 | 0.00 | 0.08 | 0.00 | 76 | 1021.8 |
| 20260830153732 | 14 | 64 | 1.6 | 3.2 | 0.00 | 0.08 | 0.00 | 77 | 1021.6 |
| 20260830153239 | 14 | 258 | 0.0 | 6.4 | 0.00 | 0.08 | 0.00 | 77 | 1021.6 |
| 20260830152726 | 13 | 282 | 1.6 | 6.4 | 0.00 | 0.08 | 0.00 | 77 | 1021.5 |
| 20260830152234 | 13 | 33 | 1.6 | 4.8 | 0.00 | 0.08 | 0.00 | 79 | 1021.6 |
| 20260830151801 | 13 | 117 | 1.6 | 3.2 | 0.00 | 0.89 | 0.00 | 82 | 1021.5 |
| 20260830151236 | 13 | 120 | 0.0 | 3.2 | 0.00 | 0.89 | 0.00 | 83 | 1021.6 |
| 20260830150727 | 13 | 43 | 0.0 | 3.2 | 0.00 | 0.89 | 0.00 | 84 | 1021.6 |
| 20260830150234 | 12 | 101 | 0.0 | 1.6 | 0.00 | 0.89 | 0.00 | 85 | 1021.6 |
| 20260830145721 | 12 | 60 | 0.0 | 0.0 | 0.00 | 0.89 | 0.00 | 87 | 1021.6 |
| 20260830145229 | 12 | 60 | 0.0 | 0.0 | 0.00 | 0.89 | 0.00 | 88 | 1021.5 |
| 20260830144735 | 12 | 60 | 0.0 | 0.0 | 0.00 | 0.89 | 0.00 | 88 | 1021.5 |
| 20260830144303 | 12 | 60 | 0.0 | 0.0 | 0.00 | 0.89 | 0.00 | 88 | 1021.6 |
| 20260830143759 | 12 | 60 | 0.0 | 0.0 | 0.00 | 0.89 | 0.00 | 89 | 1021.6 |
| 20260830143727 | 12 | 60 | 0.0 | 0.0 | 0.00 | 0.89 | 0.00 | 89 | 1021.6 |
| 20260830143255 | 12 | 60 | 0.0 | 0.0 | 0.00 | 0.89 | 0.00 | 89 | 1021.5 |
| 20260830142730 | 12 | 60 | 0.0 | 0.0 | 0.00 | 0.89 | 0.00 | 89 | 1021.5 |
| 20260830142239 | 12 | 60 | 0.0 | 0.0 | 0.00 | 0.89 | 0.00 | 89 | 1021.4 |
| 20260830141725 | 12 | 60 | 0.0 | 0.0 | 0.00 | 1.96 | 0.00 | 89 | 1021.2 |
| 20260830141307 | 12 | 60 | 0.0 | 0.0 | 0.00 | 1.96 | 0.00 | 89 | 1021.2 |
| 20260830141235 | 12 | 60 | 0.0 | 0.0 | 0.00 | 1.96 | 0.00 | 89 | 1021.2 |
| 20260830140722 | 12 | 60 | 0.0 | 0.0 | 0.00 | 1.96 | 0.00 | 89 | 1021.2 |
| 20260830140309 | 12 | 60 | 0.0 | 0.0 | 0.00 | 1.96 | 0.00 | 89 | 1021.3 |
| 20260830140238 | 12 | 60 | 0.0 | 0.0 | 0.00 | 1.96 | 0.00 | 89 | 1021.3 |
| 20260830135724 | 12 | 60 | 0.0 | 0.0 | 0.00 | 1.96 | 0.00 | 89 | 1021.2 |
| 20260830135253 | 12 | 60 | 0.0 | 0.0 | 0.00 | 1.96 | 0.00 | 89 | 1021.2 |
| 20260830134727 | 12 | 60 | 0.0 | 0.0 | 0.00 | 1.96 | 0.00 | 89 | 1021.1 |
| 20260830134238 | 12 | 60 | 0.0 | 0.0 | 0.00 | 1.96 | 0.00 | 89 | 1021.1 |
| 20260830133725 | 12 | 60 | 0.0 | 0.0 | 0.00 | 1.96 | 0.00 | 89 | 1021.1 |
| 20260830133232 | 12 | 60 | 0.0 | 0.0 | 0.00 | 1.96 | 0.00 | 89 | 1021.1 |
| 20260830132739 | 12 | 60 | 0.0 | 0.0 | 0.00 | 1.96 | 0.00 | 89 | 1021.0 |
| 20260830132227 | 12 | 60 | 0.0 | 0.0 | 0.00 | 1.96 | 0.00 | 89 | 1021.0 |
| 20260830131728 | 12 | 60 | 0.0 | 0.0 | 0.00 | 1.96 | 0.00 | 89 | 1021.0 |
| 20260830131235 | 12 | 60 | 0.0 | 0.0 | 0.00 | 1.96 | 0.00 | 89 | 1021.0 |
| 20260830130722 | 12 | 60 | 0.0 | 0.0 | 0.00 | 1.96 | 0.00 | 88 | 1020.9 |
| 20260830130309 | 12 | 60 | 0.0 | 0.0 | 0.00 | 1.96 | 0.00 | 89 | 1020.9 |
| 20260830130237 | 12 | 60 | 0.0 | 0.0 | 0.00 | 1.96 | 0.00 | 89 | 1020.9 |
| 20260830125724 | 12 | 60 | 0.0 | 0.0 | 0.00 | 1.96 | 0.00 | 88 | 1020.9 |
| 20260830125232 | 12 | 60 | 0.0 | 0.0 | 0.00 | 1.96 | 0.00 | 88 | 1021.0 |
| 20260830124742 | 12 | 60 | 0.0 | 0.0 | 0.00 | 1.96 | 0.00 | 88 | 1021.1 |
| 20260830124224 | 12 | 60 | 0.0 | 0.0 | 0.00 | 1.96 | 0.00 | 88 | 1021.1 |
| 20260830123731 | 12 | 60 | 0.0 | 0.0 | 0.00 | 1.96 | 0.00 | 87 | 1021.1 |
| 20260830123238 | 12 | 60 | 0.0 | 0.0 | 0.00 | 1.96 | 0.00 | 88 | 1021.1 |
| 20260830122725 | 12 | 60 | 0.0 | 0.0 | 0.00 | 1.96 | 0.00 | 88 | 1021.1 |
| 20260830122235 | 12 | 60 | 0.0 | 0.0 | 0.00 | 1.96 | 0.00 | 88 | 1021.1 |
| 20260830121720 | 12 | 60 | 0.0 | 0.0 | 0.00 | 1.96 | 0.00 | 88 | 1021.2 |
| 20260830121308 | 12 | 60 | 0.0 | 0.0 | 0.00 | 1.96 | 0.00 | 88 | 1021.2 |
| 20260830120720 | 12 | 60 | 0.0 | 0.0 | 0.00 | 1.96 | 0.00 | 88 | 1021.2 |
| 20260830120307 | 12 | 60 | 0.0 | 0.0 | 0.00 | 1.96 | 0.00 | 88 | 1021.1 |
| 20260830115723 | 12 | 60 | 0.0 | 0.0 | 0.00 | 1.96 | 0.00 | 88 | 1021.2 |
| 20260830115231 | 12 | 60 | 0.0 | 0.0 | 0.00 | 1.96 | 0.00 | 89 | 1021.2 |
| 20260830114721 | 12 | 60 | 0.0 | 0.0 | 0.00 | 1.96 | 0.00 | 89 | 1021.1 |
| 20260830114228 | 12 | 60 | 0.0 | 0.0 | 0.00 | 1.96 | 0.00 | 89 | 1021.1 |
| 20260830113735 | 12 | 60 | 0.0 | 0.0 | 0.00 | 1.96 | 0.00 | 89 | 1021.1 |
| 20260830113222 | 12 | 60 | 0.0 | 0.0 | 0.00 | 1.96 | 0.00 | 89 | 1021.0 |
| 20260830112729 | 12 | 60 | 0.0 | 0.0 | 0.00 | 1.96 | 0.00 | 89 | 1021.0 |
| 20260830112238 | 12 | 60 | 0.0 | 0.0 | 0.00 | 1.96 | 0.00 | 89 | 1020.9 |
| 20260830111724 | 12 | 60 | 0.0 | 0.0 | 0.00 | 1.96 | 0.00 | 89 | 1020.9 |
| 20260830111231 | 12 | 60 | 0.0 | 0.0 | 0.00 | 1.96 | 0.00 | 89 | 1020.9 |
| 20260830110738 | 12 | 60 | 0.0 | 0.0 | 0.00 | 1.96 | 0.00 | 89 | 1020.9 |
| 20260830110229 | 12 | 60 | 0.0 | 1.6 | 0.00 | 1.96 | 0.00 | 89 | 1020.9 |
| 20260830105736 | 11 | 60 | 0.0 | 1.6 | 0.00 | 1.96 | 0.00 | 89 | 1020.9 |
| 20260830105259 | 11 | 60 | 0.0 | 1.6 | 0.00 | 1.96 | 0.00 | 90 | 1021.0 |
| 20260830104733 | 11 | 60 | 0.0 | 0.0 | 0.00 | 1.96 | 0.00 | 90 | 1020.9 |
| 20260830104220 | 11 | 60 | 0.0 | 0.0 | 0.00 | 1.96 | 0.00 | 90 | 1021.0 |
| 20260830103727 | 11 | 60 | 0.0 | 0.0 | 0.00 | 1.96 | 0.00 | 90 | 1020.9 |
| 20260830103313 | 11 | 60 | 0.0 | 0.0 | 0.00 | 1.96 | 0.00 | 90 | 1021.0 |
| 20260830103241 | 11 | 60 | 0.0 | 0.0 | 0.00 | 1.96 | 0.00 | 90 | 1021.0 |
| 20260830102722 | 11 | 60 | 0.0 | 0.0 | 0.00 | 1.96 | 0.00 | 90 | 1021.0 |
| 20260830102230 | 11 | 60 | 0.0 | 0.0 | 0.00 | 1.96 | 0.00 | 90 | 1021.0 |
| 20260830101736 | 11 | 60 | 0.0 | 0.0 | 0.00 | 1.96 | 0.00 | 89 | 1021.0 |
| 20260830101303 | 11 | 60 | 0.0 | 0.0 | 0.00 | 1.96 | 0.00 | 89 | 1020.9 |
| 20260830101232 | 11 | 60 | 0.0 | 0.0 | 0.00 | 1.96 | 0.00 | 89 | 1020.9 |
| 20260830100739 | 11 | 60 | 0.0 | 0.0 | 0.00 | 1.96 | 0.00 | 89 | 1020.9 |
| 20260830100226 | 11 | 60 | 0.0 | 0.0 | 0.00 | 1.96 | 0.00 | 89 | 1020.9 |
| 20260830095754 | 11 | 60 | 0.0 | 0.0 | 0.00 | 1.96 | 0.00 | 89 | 1020.8 |
| 20260830095230 | 11 | 60 | 0.0 | 0.0 | 0.00 | 1.96 | 0.00 | 89 | 1020.8 |
| 20260830094721 | 11 | 60 | 0.0 | 0.0 | 0.00 | 1.96 | 0.00 | 89 | 1020.8 |
| 20260830094227 | 11 | 60 | 0.0 | 0.0 | 0.00 | 1.96 | 0.00 | 89 | 1020.9 |
| 20260830093734 | 11 | 60 | 0.0 | 0.0 | 0.00 | 1.96 | 0.00 | 89 | 1020.8 |
| 20260830093221 | 11 | 60 | 0.0 | 3.2 | 0.00 | 1.96 | 0.00 | 89 | 1020.8 |
| 20260830092808 | 11 | 60 | 0.0 | 3.2 | 0.00 | 1.96 | 0.00 | 90 | 1020.8 |
| 20260830092736 | 11 | 60 | 0.0 | 3.2 | 0.00 | 1.96 | 0.00 | 90 | 1020.8 |
| 20260830092224 | 11 | 60 | 0.0 | 3.2 | 0.00 | 1.96 | 0.00 | 90 | 1020.7 |
| 20260830091730 | 11 | 60 | 0.0 | 3.2 | 0.00 | 1.96 | 0.00 | 90 | 1020.9 |
| 20260830091237 | 11 | 60 | 0.0 | 3.2 | 0.00 | 1.96 | 0.00 | 90 | 1020.9 |
| 20260830090724 | 11 | 60 | 0.0 | 0.0 | 0.00 | 1.96 | 0.00 | 90 | 1021.0 |
| 20260830090231 | 11 | 60 | 0.0 | 0.0 | 0.00 | 1.96 | 0.00 | 90 | 1021.0 |
| 20260830085758 | 11 | 60 | 0.0 | 0.0 | 0.00 | 1.96 | 0.00 | 90 | 1021.1 |
| 20260830085256 | 11 | 60 | 0.0 | 0.0 | 0.00 | 1.96 | 0.00 | 90 | 1020.9 |
| 20260830084730 | 11 | 60 | 0.0 | 0.0 | 0.00 | 1.96 | 0.00 | 90 | 1021.0 |
| 20260830084221 | 11 | 60 | 0.0 | 0.0 | 0.00 | 1.96 | 0.00 | 90 | 1020.9 |
| 20260830083809 | 11 | 60 | 0.0 | 0.0 | 0.00 | 1.96 | 0.00 | 90 | 1020.8 |
| 20260830083224 | 11 | 60 | 0.0 | 0.0 | 0.00 | 1.96 | 0.00 | 89 | 1020.8 |
| 20260830082731 | 11 | 60 | 0.0 | 0.0 | 0.00 | 1.96 | 0.00 | 89 | 1020.8 |
| 20260830081724 | 11 | 60 | 0.0 | 0.0 | 0.00 | 1.96 | 1.96 | 89 | 1020.9 |
| 20260830081251 | 11 | 60 | 0.0 | 0.0 | 0.00 | 1.96 | 1.96 | 88 | 1020.8 |
| 20260830080808 | 11 | 60 | 0.0 | 0.0 | 0.00 | 1.96 | 1.96 | 88 | 1020.8 |
| 20260830080224 | 11 | 60 | 0.0 | 0.0 | 0.00 | 1.96 | 1.96 | 87 | 1020.8 |
| 20260830075731 | 11 | 60 | 0.0 | 0.0 | 0.00 | 1.96 | 1.96 | 87 | 1020.8 |
| 20260830075259 | 11 | 60 | 0.0 | 3.2 | 0.00 | 1.96 | 1.96 | 87 | 1020.7 |
| 20260830075228 | 11 | 60 | 0.0 | 3.2 | 0.00 | 1.96 | 1.96 | 87 | 1020.7 |
| 20260830074731 | 11 | 60 | 0.0 | 1.6 | 0.00 | 1.96 | 1.96 | 87 | 1020.9 |
| 20260830074238 | 11 | 60 | 0.0 | 0.0 | 0.00 | 1.96 | 1.96 | 87 | 1020.9 |
| 20260830073725 | 11 | 60 | 0.0 | 0.0 | 0.00 | 1.96 | 1.96 | 86 | 1020.9 |
| 20260830073231 | 12 | 60 | 0.0 | 0.0 | 0.00 | 1.96 | 1.96 | 86 | 1020.9 |
| 20260830072758 | 12 | 60 | 0.0 | 0.0 | 0.00 | 1.96 | 1.96 | 86 | 1020.7 |
| 20260830072726 | 12 | 60 | 0.0 | 0.0 | 0.00 | 1.96 | 1.96 | 86 | 1020.7 |
| 20260830072234 | 12 | 60 | 0.0 | 0.0 | 0.00 | 1.96 | 1.96 | 86 | 1020.7 |
| 20260830071801 | 12 | 60 | 0.0 | 0.0 | 0.00 | 1.96 | 1.96 | 85 | 1020.6 |
| 20260830071236 | 12 | 60 | 0.0 | 0.0 | 0.00 | 1.96 | 1.96 | 85 | 1020.7 |
| 20260830070724 | 12 | 60 | 0.0 | 0.0 | 0.00 | 1.96 | 1.96 | 84 | 1020.7 |
| 20260830070310 | 12 | 60 | 0.0 | 0.0 | 0.00 | 1.96 | 1.96 | 84 | 1020.6 |
| 20260830070239 | 12 | 60 | 0.0 | 0.0 | 0.00 | 1.96 | 1.96 | 84 | 1020.6 |
| 20260830065725 | 12 | 60 | 0.0 | 0.0 | 0.00 | 1.96 | 1.96 | 84 | 1020.6 |
| 20260830065233 | 12 | 60 | 0.0 | 0.0 | 0.00 | 1.96 | 1.96 | 84 | 1020.6 |
| 20260830064739 | 12 | 60 | 0.0 | 3.2 | 0.00 | 1.96 | 1.96 | 83 | 1020.6 |
| 20260830064306 | 12 | 60 | 0.0 | 3.2 | 0.00 | 1.96 | 1.96 | 82 | 1020.5 |
| 20260830064234 | 12 | 60 | 0.0 | 3.2 | 0.00 | 1.96 | 1.96 | 82 | 1020.5 |
| 20260830063802 | 12 | 60 | 0.0 | 0.0 | 0.00 | 1.96 | 1.96 | 82 | 1020.6 |
| 20260830063258 | 13 | 60 | 0.0 | 0.0 | 0.00 | 1.96 | 1.96 | 82 | 1020.6 |
| 20260830062753 | 13 | 60 | 0.0 | 0.0 | 0.00 | 1.96 | 1.96 | 82 | 1020.5 |
| 20260830062229 | 13 | 60 | 0.0 | 0.0 | 0.00 | 1.96 | 1.96 | 81 | 1020.5 |
| 20260830061735 | 13 | 60 | 0.0 | 3.2 | 0.00 | 1.96 | 1.96 | 81 | 1020.5 |
| 20260830061222 | 13 | 60 | 0.0 | 3.2 | 0.00 | 1.96 | 1.96 | 81 | 1020.4 |
| 20260830060729 | 13 | 60 | 0.0 | 0.0 | 0.00 | 1.96 | 1.96 | 80 | 1020.4 |
| 20260830060220 | 13 | 60 | 0.0 | 0.0 | 0.00 | 1.96 | 1.96 | 79 | 1020.5 |
| 20260830055727 | 13 | 60 | 0.0 | 0.0 | 0.00 | 1.96 | 1.96 | 80 | 1020.5 |
| 20260830055235 | 13 | 60 | 0.0 | 0.0 | 0.00 | 1.96 | 1.96 | 79 | 1020.5 |
| 20260830054721 | 13 | 60 | 0.0 | 3.2 | 0.00 | 1.96 | 1.96 | 77 | 1020.4 |
| 20260830054228 | 14 | 60 | 0.0 | 3.2 | 0.00 | 1.96 | 1.96 | 77 | 1020.3 |
| 20260830053735 | 14 | 60 | 0.0 | 1.6 | 0.00 | 1.96 | 1.96 | 76 | 1020.3 |
| 20260830053222 | 14 | 60 | 0.0 | 3.2 | 0.00 | 1.96 | 1.96 | 76 | 1020.3 |
| 20260830052729 | 14 | 5 | 0.0 | 3.2 | 0.00 | 1.96 | 1.96 | 76 | 1020.3 |
| 20260830052257 | 14 | 9 | 1.6 | 3.2 | 0.00 | 1.96 | 1.96 | 75 | 1020.3 |
| 20260830051730 | 15 | 178 | 0.0 | 3.2 | 0.00 | 1.96 | 1.96 | 75 | 1020.3 |
| 20260830051221 | 15 | 294 | 0.0 | 3.2 | 0.00 | 1.96 | 1.96 | 74 | 1020.3 |
| 20260830050728 | 15 | 252 | 0.0 | 6.4 | 0.00 | 1.96 | 1.96 | 73 | 1020.3 |
| 20260830050235 | 15 | 252 | 1.6 | 6.4 | 0.00 | 1.96 | 1.96 | 73 | 1020.4 |
| 20260830045722 | 15 | 105 | 0.0 | 3.2 | 0.00 | 1.96 | 1.96 | 73 | 1020.3 |
| 20260830045230 | 15 | 156 | 0.0 | 3.2 | 0.00 | 1.96 | 1.96 | 73 | 1020.4 |
| 20260830044736 | 15 | 156 | 0.0 | 4.8 | 0.00 | 1.96 | 1.96 | 73 | 1020.3 |
| 20260830044223 | 15 | 156 | 1.6 | 4.8 | 0.00 | 1.96 | 1.96 | 72 | 1020.2 |
| 20260830043730 | 15 | 141 | 0.0 | 3.2 | 0.00 | 1.96 | 1.96 | 72 | 1020.3 |
| 20260830043237 | 15 | 204 | 0.0 | 6.4 | 0.00 | 1.96 | 1.96 | 71 | 1020.3 |
| 20260830042724 | 15 | 345 | 1.6 | 4.8 | 0.00 | 1.96 | 1.96 | 71 | 1020.4 |